www.pogodaiklimat.ru

Погода и климат >> Архив погоды >> Ирак >> Эль-Фао


ПОГОДА в Эль-Фао

  • Прогноз погоды в Эль-Фао
  • Монитор погоды в Эль-Фао

АРХИВ ПОГОДЫ в Эль-Фао

Время (UTC), дата Ветер
(напр.,м/с)
 
Видим.   Явления Облачность Т
(С)
Тd
(С)
f
(%)
Тe
(С)
Тes
(С)
Комфортность P
(гПа)
Po
(гПа)
Тmin
(С)
Tmax
(С)
R
(мм)
R24
(мм)
S
(см)
12 8.09 СЗ 3 10 км ясно +41.8 +9.0 14 +40 +47 очень
жарко
1002.0 1001.8
15 8.09 СЗ 2 10 км ясно +38.0 +11.0 20 +37 +37 очень
жарко
1001.8 1001.6
18 8.09 СЗ 2 10 км ясно +34.4 +12.1 26 +34 +34 очень
жарко
1003.8 1003.6 +42.5
21 8.09 СЗ 3 10 км ясно +31.6 +13.5 33 +33 +33 жарко 1003.4 1003.2
00 9.09 СЗ 2 10 км ясно +30.0 +13.0 35 +31 +31 жарко 1002.8 1002.6
03 9.09 СЗ 2 10 км ясно +28.0 +13.2 40 +30 +30 жарко 1003.8 1003.6
06 9.09 СЗ 3 10 км ясно +36.0 +12.2 24 +36 +44 очень
жарко
1005.0 1004.8 +26.0
09 9.09 СЗ 3 10 км ясно +40.4 +11.6 18 +39 +54 опасность
солнечного
удара
1003.8 1003.6
12 9.09 С 2 10 км ясно +42.6 +8.8 13 +41 +49 опасность
перегрева
1001.8 1001.6
15 9.09 СЗ 2 10 км ясно +39.0 +9.5 17 +37 +37 очень
жарко
1001.8 1001.6
18 9.09 СЗ 2 10 км ясно +35.2 +9.2 20 +34 +34 очень
жарко
1004.0 1003.8 +42.8
21 9.09 СЗ 3 10 км ясно +31.6 +11.1 28 +32 +32 жарко 1004.2 1004.0
03 10.09 З 2 10 км ясно +27.4 +11.5 37 +28 +28 жарко 1004.0 1003.8
06 10.09 СЗ 4 10 км ясно +35.4 +9.6 21 +34 +41 очень
жарко
1005.6 1005.4 +25.5
09 10.09 СЗ 4 10 км ясно +40.8 +8.2 14 +39 +51 опасность
солнечного
удара
1004.8 1004.6
12 10.09 СЗ 5 10 км ясно +41.8 +9.0 14 +40 +44 очень
жарко
1003.2 1003.0
15 10.09 СЗ 5 10 км ясно +38.8 +6.5 14 +36 +36 очень
жарко
1004.4 1004.2
18 10.09 СЗ 4 10 км ясно +34.2 +9.1 21 +33 +33 жарко 1006.0 1005.8 +42.0
21 10.09 СЗ 4 10 км ясно +31.6 +11.1 28 +32 +32 жарко 1005.8 1005.6
00 11.09 СЗ 3 10 км ясно +29.6 +11.4 32 +30 +30 жарко 1006.2 1006.0
12 11.09 СЗ 5 10 км ясно +41.4 +8.2 14 +39 +44 очень
жарко
1006.0 1005.8
21 11.09 СЗ 3 10 км ясно +29.8 +9.7 29 +30 +30 жарко 1008.2 1008.0
03 12.09 СЗ 2 10 км ясно +25.6 +12.6 44 +27 +27 жарко 1008.6 1008.4
06 12.09 СЗ 3 10 км ясно +34.2 +12.8 27 +34 +43 очень
жарко
1009.2 1009.0 +24.0
09 12.09 СЗ 5 10 км ясно +41.0 +8.0 14 +39 +48 очень
жарко
1008.2 1008.0
12 12.09 СЗ 8 10 км ясно +41.2 +8.4 14 +39 +41 очень
жарко
1006.4 1006.2
15 12.09 СЗ 3 10 км ясно +37.0 +11.1 21 +36 +36 очень
жарко
1006.8 1006.6
18 12.09 СЗ 2 10 км ясно +33.0 +12.3 28 +33 +33 жарко 1007.4 1007.0 +42.0
21 12.09 СЗ 2 10 км ясно +31.2 +12.9 33 +32 +32 жарко 1007.2 1007.0
00 13.09 СЗ 2 10 км ясно +29.2 +11.8 34 +30 +30 жарко 1007.2 1007.0
03 13.09 СЗ 2 10 км ясно +27.0 +11.8 39 +28 +28 жарко 1008.2 1008.0
06 13.09 СЗ 2 10 км ясно +35.6 +10.5 22 +35 +45 очень
жарко
1010.0 1009.8 +25.5
12 13.09 СЗ 3 10 км ясно +42.6 +8.8 13 +41 +47 опасность
перегрева
1006.6 1006.4
15 13.09 СЗ 3 10 км ясно +38.0 +11.0 20 +37 +37 очень
жарко
1006.8 1006.6
18 13.09 С 2 10 км ясно +33.6 +12.8 28 +34 +34 очень
жарко
1008.6 1008.4 +43.0
21 13.09 штиль 0 10 км ясно +32.6 +12.4 29 +33 +33 жарко 1007.4 1007.2
00 14.09 СЗ 2 10 км ясно +29.6 +14.2 39 +32 +32 душно 1007.4 1007.2
03 14.09 З 3 10 км ясно +28.0 +18.4 56 +33 +33 очень
душно
1008.6 1008.4
06 14.09 СЗ 2 10 км ясно +36.2 +9.4 20 +35 +45 очень
жарко
1010.2 1010.0 +25.6
09 14.09 СЗ 2 10 км ясно +42.0 +8.2 13 +40 +57 опасность
солнечного
удара
1008.4 1008.2
12 14.09 С 2 10 км ясно +43.0 +8.4 13 +41 +49 опасность
перегрева
1006.6 1006.4
15 14.09 С 2 10 км ясно +38.5 +9.7 18 +37 +37 очень
жарко
1006.2 1006.0
18 14.09 С 2 10 км ясно +34.6 +11.9 25 +34 +34 очень
жарко
1007.7 1007.5 +43.6
21 14.09 С 2 10 км ясно +34.2 +12.3 27 +34 +34 очень
жарко
1007.2 1007.0
00 15.09 штиль 0 10 км ясно +29.6 +19.6 55 +36 +36 очень
душно
1006.6 1006.4
03 15.09 СЗ 2 10 км 1/0
[Ci fib]
+28.2 +19.3 59 +34 +34 очень
душно
1007.6 1007.4
06 15.09 ЮЗ 2 10 км 1/0
[Ci fib]
+37.4 +10.5 20 +36 +46 очень
жарко
1009.4 1009.2 +26.4
09 15.09 СЗ 2 10 км ясно +42.8 +8.6 13 +41 +58 опасность
перегрева
1008.8 1008.6

 

Местоположение метеостанции Эль-Фао (Ирак): широта 29.98 долгота 48.50 высота над уровнем моря 2 м.

В архиве по умолчанию представлена погода в Эль-Фао за последнюю неделю. Архивные данные за месяц целиком и за предыдущие месяцы, начиная с января 2011 года, Вы можете получить, выбрав интересующий диапазон дат из раскрывающегося списка и нажав кнопку "Ввод!".


*Определитесь, кто Вы:
робот инопланетянин человек

Внимание! Время в таблицах - всемирное. Для получения местного времени необходимо прибавить поправку, которая равна 3 ч.

Смотрите также архив погоды в соседних городах и на ближайших метеорологических станциях:

Погода на Бубияне (Кувейт) (26 км)
Погода в Абадане (Иран) (50 км)
Погода Остров Файлака (Кувейт) (61 км)
Погода на Метеостанции Sabriyah (Кувейт) (68 км)
Погода в Абдали (Кувейт) (78 км)
Погода в Аль-Шуаиба (Кувейт) (80 км)
Погода в Кувейт Сити (Кувейт) (84 км)
Погода в Басре аэропорт (Ирак) (92 км)
Погода на Экспериментальной ферме (Кувейт) (94 км)
Погода в Басре (Ирак) (95 км)

Пояснения к столбцам:

Ветер - указаны скорость ветра в м/с - средняя за 10 мин, порывы в срок и между сроками (в фигурных скобках) и направление, откуда дует ветер: С - северный, СВ - северо-восточный, В - восточный, ЮВ - юго-восточный, Ю - южный, ЮЗ - юго-западный, З - западный, СЗ - северо-западный.
Видимость - горизонтальная дальность видимости в метрах или километрах. При видимости от 1 до 10 км при отсутствии осадков обычно наблюдается дымка, при ухудшении видимости до 1 км и менее - туман. В сухую погоду видимость может ухудшаться дымом, пылью или мглою.
Явления - указаны атмосферные явления, наблюдавшиеся в срок или в последний час перед сроком; фигурными скобками обозначены явления, наблюдавшиеся между сроками (за 1-3 часа до срока); квадратными скобками обозначены град или гололедные отложения с указанием их диаметра в мм.
Облачность - указаны через наклонную черту общая и нижняя облачность в баллах и высота нижней границы облаков в метрах; квадратными скобками обозначены формы облаков: Ci - перистые, Cs - перисто-слоистые, Cc - перисто-кучевые, Ac - высококучевые, As - высокослоистые, Sc - слоисто-кучевые, Ns - слоисто-дождевые, Cu - кучевые, Cb - кучево-дождевые. Подробнее классификацию облаков см. в Атласе облаков (PDF).
T - Температура воздуха - температура, измеренная на высоте 2 м над землей.
Td - Температура точки росы - температура, при понижении до которой содержащийся в воздухе водяной пар достигнет насыщения.
f - Относительная влажность воздуха - влажноcть воздуха, измеренная на высоте 2 м над землей.
Te - Эффективная температура - температура, которую ощущает одетый по сезону человек в тени. Характеристика душности погоды. При расчете учитывается влияние влажности воздуха и скорости ветра на теплоощущения человека.
Tes - Эффективная температура на солнце - температура, которую ощущает человек, с поправкой на солнечный нагрев. Характеристика знойности погоды. Зависит от высоты солнца над горизонтом, облачности и скорости ветра. Ночью, в пасмурную погоду, а также при ветре 12 м/с и более поправка равна нулю.
P - Атмосферное давление - приведенное к уровню моря атмосферное давление.
Po - Атмосферное давление - измеренное на уровне метеостанции атмосферное давление.
Tmin - Минимальная температура - минимум температуры воздуха на высоте 2 м над землей.
Tmax - Максимальная температура - максимум температуры воздуха на высоте 2 м над землей.
R - Количество осадков - Количество выпавших осадков за период времени, мм. При наведении курсора мыши на число - период времени, за который выпало указанное количество осадков.
R24 - Количество осадков - Количество выпавших осадков за 24 часа, мм.
S - Снежный покров - Высота снежного покрова, см. При наведении курсора мыши на число - состояние снежного покрова и степень покрытия местности в баллах.